Liberal, KS

8:18 PM CST on February 20, 2017 (GMT -0600)
Liberal Municipal

Weather History for KLBL - May, 2013

Change the Weather History Date:

Thursday, May 30, 2013

  Actual Average Record
Temperature  
Mean Temperature 73 °F -  
Max Temperature 91 °F 83 °F 101 °F (1958)
Min Temperature 55 °F 55 °F 42 °F (1964)
Cooling Degree Days 8    
Growing Degree Days 23 (Base 50)    
Moisture  
Dew Point 42 °F    
Average Humidity 42    
Maximum Humidity 82    
Minimum Humidity 11    
Precipitation  
Precipitation 0.00 in - - ()
Sea Level Pressure  
Sea Level Pressure 29.64 in    
Wind  
Wind Speed 12 mph (WNW)    
Max Wind Speed 31 mph    
Max Gust Speed 39 mph    
Visibility 10 miles    
Events      
Averages and records for this station are not official NWS values.
T = Trace of Precipitation, MM = Missing Value Source: NWS Daily Summary

Daily Weather History Graph

Daily Weather History Graph

Search for Another Location

Airport or City:

Trip Planner

Search our weather history database for the weather conditions in past years. The results will help you decide how hot, cold, wet, or windy it might be!

Date:

Astronomy

May. 30, 2013 Rise Set
Actual Time 6:26 AM CDT 8:56 PM CDT
Civil Twilight 5:56 AM CDT 9:27 PM CDT
Nautical Twilight 5:18 AM CDT 10:04 PM CDT
Astronomical Twilight 4:37 AM CDT 10:46 PM CDT
Moon 1:03 AM CDT (5/30) 12:31 PM CDT (5/30)
Length of Visible Light 15h 31m
Length of Day
14h 30m
Waning Gibbous, 62% of the Moon is Illuminated
May 30
Waning Gibbous
May 31
Last Quarter
Jun 8
New
Jun 16
First Quarter
Jun 23
Full

Hourly Weather History & Observations

Time (CDT) Temp. Dew Point Humidity Pressure Visibility Wind Dir Wind Speed Gust Speed Precip Events Conditions
12:15 AM 69.8 °F 57.2 °F 64% 29.57 in 10.0 mi NNW 10.4 mph 18.4 mph N/A   Overcast
12:35 AM 69.8 °F 59.0 °F 68% 29.57 in 10.0 mi WSW 8.1 mph - N/A   Mostly Cloudy
12:55 AM 71.6 °F 59.0 °F 64% 29.57 in 10.0 mi SSW 3.5 mph - N/A   Overcast
1:15 AM 71.6 °F 60.8 °F 69% 29.57 in 10.0 mi ESE 8.1 mph - N/A   Overcast
1:35 AM 71.6 °F 60.8 °F 69% 29.57 in 10.0 mi SE 6.9 mph - N/A   Overcast
1:55 AM 69.8 °F 60.8 °F 73% 29.56 in 10.0 mi SE 6.9 mph - N/A   Overcast
2:15 AM 69.8 °F 60.8 °F 73% 29.56 in 10.0 mi Calm Calm - N/A   Overcast
2:35 AM 69.8 °F 59.0 °F 68% 29.55 in 10.0 mi Calm Calm - N/A   Scattered Clouds
2:55 AM 64.4 °F 53.6 °F 68% 29.57 in 10.0 mi NNW 18.4 mph 21.9 mph N/A   Scattered Clouds
3:15 AM 62.6 °F 51.8 °F 68% 29.56 in 10.0 mi North 18.4 mph - N/A   Overcast
3:35 AM 62.6 °F 51.8 °F 68% 29.56 in 10.0 mi NNW 18.4 mph - N/A   Overcast
3:55 AM 60.8 °F 50.0 °F 68% 29.57 in 10.0 mi NNW 19.6 mph 24.2 mph N/A   Scattered Clouds
4:15 AM 59.0 °F 48.2 °F 67% 29.59 in 10.0 mi NNW 18.4 mph - N/A   Clear
4:35 AM 57.2 °F 48.2 °F 72% 29.59 in 10.0 mi NNW 18.4 mph - N/A   Clear
4:55 AM 57.2 °F 46.4 °F 67% 29.60 in 10.0 mi NNW 17.3 mph - N/A   Clear
5:15 AM 57.2 °F 48.2 °F 72% 29.61 in 10.0 mi North 17.3 mph - N/A   Clear
5:35 AM 57.2 °F 48.2 °F 72% 29.63 in 10.0 mi NNW 13.8 mph - N/A   Clear
5:55 AM 55.4 °F 48.2 °F 77% 29.64 in 10.0 mi NNW 11.5 mph - N/A   Mostly Cloudy
6:15 AM 57.2 °F 48.2 °F 72% 29.66 in 10.0 mi NNW 11.5 mph - N/A   Overcast
6:35 AM 55.4 °F 48.2 °F 77% 29.68 in 10.0 mi NW 11.5 mph - N/A   Overcast
6:55 AM 57.2 °F 48.2 °F 72% 29.70 in 10.0 mi NNW 9.2 mph - N/A   Overcast
7:15 AM 57.2 °F 50.0 °F 77% 29.70 in 10.0 mi North 4.6 mph - N/A   Overcast
7:35 AM 57.2 °F 51.8 °F 82% 29.73 in 10.0 mi Calm Calm - N/A   Overcast
7:55 AM 57.2 °F 51.8 °F 82% 29.75 in 10.0 mi SSW 4.6 mph - N/A   Mostly Cloudy
8:15 AM 59.0 °F 51.8 °F 77% 29.74 in 10.0 mi North 5.8 mph - N/A   Mostly Cloudy
8:35 AM 60.8 °F 51.8 °F 72% 29.73 in 10.0 mi NNW 10.4 mph - N/A   Partly Cloudy
8:55 AM 62.6 °F 53.6 °F 72% 29.75 in 10.0 mi West 4.6 mph - N/A   Partly Cloudy
9:15 AM 62.6 °F 53.6 °F 72% 29.74 in 10.0 mi WNW 5.8 mph - N/A   Partly Cloudy
9:35 AM 66.2 °F 55.4 °F 68% 29.75 in 10.0 mi WNW 8.1 mph - N/A   Clear
9:55 AM 66.2 °F 53.6 °F 64% 29.75 in 10.0 mi WNW 6.9 mph - N/A   Clear
10:15 AM 69.8 °F 53.6 °F 56% 29.74 in 10.0 mi NW 6.9 mph - N/A   Clear
10:35 AM 71.6 °F 53.6 °F 53% 29.73 in 10.0 mi West 5.8 mph - N/A   Clear
10:55 AM 73.4 °F 51.8 °F 47% 29.74 in 10.0 mi West 8.1 mph - N/A   Clear
11:15 AM 75.2 °F 48.2 °F 38% 29.73 in 10.0 mi Calm Calm - N/A   Clear
11:35 AM 75.2 °F 46.4 °F 36% 29.73 in 10.0 mi SSW 6.9 mph - N/A   Clear
11:55 AM 78.8 °F 44.6 °F 30% 29.72 in 10.0 mi WSW 4.6 mph 16.1 mph N/A   Clear
12:15 PM 78.8 °F 44.6 °F 30% 29.71 in 10.0 mi South 10.4 mph 18.4 mph N/A   Clear
12:35 PM 80.6 °F 44.6 °F 28% 29.71 in 10.0 mi South 13.8 mph 19.6 mph N/A   Scattered Clouds
12:55 PM 82.4 °F 46.4 °F 28% 29.70 in 10.0 mi SSW 18.4 mph 24.2 mph N/A   Partly Cloudy
1:15 PM 82.4 °F 44.6 °F 26% 29.68 in 10.0 mi South 16.1 mph 25.3 mph N/A   Clear
1:35 PM 84.2 °F 44.6 °F 25% 29.68 in 10.0 mi SSW 13.8 mph - N/A   Clear
1:55 PM 86.0 °F 37.4 °F 18% 29.67 in 10.0 mi West 26.5 mph 36.8 mph N/A   Clear
2:15 PM 87.8 °F 33.8 °F 15% 29.66 in 10.0 mi WSW 31.1 mph 36.8 mph N/A   Clear
2:35 PM 89.6 °F 33.8 °F 14% 29.65 in 10.0 mi West 20.7 mph 39.1 mph N/A   Clear
2:55 PM 87.8 °F 30.2 °F 13% 29.65 in 10.0 mi SW 23.0 mph 32.2 mph N/A   Clear
3:15 PM 89.6 °F 30.2 °F 12% 29.64 in 10.0 mi SW 17.3 mph 35.7 mph N/A   Clear
3:35 PM 89.6 °F 30.2 °F 12% 29.63 in 10.0 mi WSW 24.2 mph 33.4 mph N/A   Clear
3:55 PM 89.6 °F 28.4 °F 11% 29.62 in 10.0 mi WSW 26.5 mph 35.7 mph N/A   Clear
4:15 PM 91.4 °F 30.2 °F 11% 29.61 in 10.0 mi WSW 26.5 mph 38.0 mph N/A   Clear
4:35 PM 91.4 °F 30.2 °F 11% 29.61 in 10.0 mi West 23.0 mph 29.9 mph N/A   Clear
4:55 PM 91.4 °F 30.2 °F 11% 29.60 in 10.0 mi West 23.0 mph 35.7 mph N/A   Clear
5:15 PM 91.4 °F 30.2 °F 11% 29.60 in 10.0 mi West 21.9 mph 39.1 mph N/A   Clear
5:35 PM 91.4 °F 30.2 °F 11% 29.59 in 10.0 mi West 25.3 mph 34.5 mph N/A   Clear
5:55 PM 91.4 °F 30.2 °F 11% 29.59 in 10.0 mi West 21.9 mph 36.8 mph N/A   Clear
6:15 PM 91.4 °F 30.2 °F 11% 29.59 in 10.0 mi West 19.6 mph 32.2 mph N/A   Clear
6:35 PM 91.4 °F 30.2 °F 11% 29.58 in 10.0 mi WNW 16.1 mph 26.5 mph N/A   Clear
6:55 PM 89.6 °F 28.4 °F 11% 29.58 in 10.0 mi WNW 15.0 mph - N/A   Clear
7:15 PM 89.6 °F 28.4 °F 11% 29.58 in 10.0 mi NW 10.4 mph - N/A   Clear
7:35 PM 89.6 °F 28.4 °F 11% 29.58 in 10.0 mi NW 11.5 mph - N/A   Clear
7:55 PM 87.8 °F 26.6 °F 11% 29.58 in 10.0 mi NW 9.2 mph - N/A   Clear
8:15 PM 86.0 °F 26.6 °F 12% 29.59 in 10.0 mi NNW 5.8 mph - N/A   Clear
8:35 PM 82.4 °F 24.8 °F 12% 29.60 in 10.0 mi North 9.2 mph - N/A   Clear
8:55 PM 78.8 °F 21.2 °F 12% 29.61 in 10.0 mi North 9.2 mph - N/A   Clear
9:15 PM 75.2 °F 21.2 °F 13% 29.62 in 10.0 mi North 11.5 mph - N/A   Clear
9:35 PM 73.4 °F 19.4 °F 13% 29.63 in 10.0 mi North 11.5 mph - N/A   Clear
9:55 PM 73.4 °F 19.4 °F 13% 29.64 in 10.0 mi North 12.7 mph - N/A   Clear
10:15 PM 71.6 °F 21.2 °F 15% 29.65 in 10.0 mi North 13.8 mph - N/A   Clear
10:35 PM 71.6 °F 28.4 °F 20% 29.66 in 10.0 mi North 17.3 mph - N/A   Clear
10:55 PM 69.8 °F 33.8 °F 27% 29.69 in 10.0 mi NNE 21.9 mph 27.6 mph N/A   Clear
11:15 PM 69.8 °F 42.8 °F 38% 29.71 in 10.0 mi NNE 18.4 mph 26.5 mph N/A   Clear
11:35 PM 69.8 °F 46.4 °F 43% 29.71 in 10.0 mi NE 18.4 mph 23.0 mph N/A   Clear
11:55 PM 68.0 °F 48.2 °F 49% 29.72 in 10.0 mi NNE 18.4 mph - N/A   Clear